Weather History for KCRP - November, 2012

Change the Weather History Date:

Thursday, November 8, 2012

  Actual Average Record
Temperature  
Mean Temperature 72 °F 68 °F  
Max Temperature 88 °F 78 °F 93 °F (1989)
Min Temperature 56 °F 59 °F 36 °F (1943)
Degree Days  
Heating Degree Days 0 2  
Month to date heating degree days 0 11  
Since 1 July heating degree days 9 21  
Cooling Degree Days 7 5  
Month to date cooling degree days 79 47  
Year to date cooling degree days 4282 3398  
Growing Degree Days 22 (Base 50)    
Moisture  
Dew Point 60 °F    
Average Humidity 67    
Maximum Humidity 93    
Minimum Humidity 40    
Precipitation  
Precipitation 0.00 in 0.08 in 1.47 in (1987)
Month to date precipitation 0.37 0.68  
Year to date precipitation 18.57 28.64  
Snow  
Snow 0.00 in - - ()
Month to date snowfall 0.0  
Since 1 July snowfall 0.0  
Since 1 September snowfall 0.0  
Snow Depth 0.00 in    
Sea Level Pressure  
Sea Level Pressure 30.07 in    
Wind  
Wind Speed 14 mph (SSE)    
Max Wind Speed 28 mph    
Max Gust Speed 35 mph    
Visibility 10 miles    
Events Fog    
T = Trace of Precipitation, MM = Missing Value Source: NWS Daily Summary

Daily Weather History Graph

Daily Weather History Graph

Search for Another Location

Airport or City:

Trip Planner

Search our weather history database for the weather conditions in past years. The results will help you decide how hot, cold, wet, or windy it might be!

Date:

Astronomy

Nov. 08, 2012 Rise Set
Actual Time 6:46 AM CST 5:40 PM CST
Civil Twilight 6:21 AM CST 6:05 PM CST
Nautical Twilight 5:53 AM CST 6:33 PM CST
Astronomical Twilight 5:26 AM CST 7:01 PM CST
Moon 1:12 AM CST (11/8) 1:56 PM CST (11/8)
Length of Visible Light 11h 43m
Length of Day
10h 54m
Waning Crescent, 32% of the Moon is Illuminated
Nov 8
Waning Crescent
Nov 13
New
Nov 20
First Quarter
Nov 28
Full
Dec 6
Last Quarter

Hourly Weather History & Observations

Time (CST) Temp. Heat Index Dew Point Humidity Pressure Visibility Wind Dir Wind Speed Gust Speed Precip Events Conditions
12:51 AM 62.1 °F - 55.9 °F 80% 30.09 in 10.0 mi South 6.9 mph - N/A   Clear
1:51 AM 61.0 °F - 55.0 °F 81% 30.08 in 10.0 mi South 5.8 mph - N/A   Clear
2:51 AM 59.0 °F - 54.0 °F 83% 30.08 in 10.0 mi South 5.8 mph - N/A   Clear
3:51 AM 59.0 °F - 54.0 °F 83% 30.07 in 10.0 mi SSW 3.5 mph - N/A   Clear
4:51 AM 59.0 °F - 57.0 °F 93% 30.08 in 10.0 mi Calm Calm - N/A   Clear
5:51 AM 59.0 °F - 57.0 °F 93% 30.09 in 10.0 mi Calm Calm - N/A   Clear
6:51 AM 57.0 °F - 55.0 °F 93% 30.10 in 10.0 mi SSE 3.5 mph - N/A Fog Patches of Fog
7:51 AM 64.9 °F - 59.0 °F 81% 30.12 in 10.0 mi SSE 3.5 mph - N/A   Partly Cloudy
8:51 AM 75.9 °F - 64.0 °F 67% 30.14 in 10.0 mi South 11.5 mph - N/A   Partly Cloudy
9:51 AM 81.0 °F 82.7 °F 64.9 °F 58% 30.14 in 10.0 mi SSE 17.3 mph - N/A   Partly Cloudy
10:51 AM 84.9 °F 85.4 °F 62.1 °F 46% 30.13 in 10.0 mi SSE 21.9 mph 28.8 mph N/A   Scattered Clouds
11:51 AM 84.9 °F 85.4 °F 62.1 °F 46% 30.10 in 10.0 mi SSE 21.9 mph 26.5 mph N/A   Scattered Clouds
12:51 PM 87.1 °F 87.0 °F 61.0 °F 41% 30.06 in 10.0 mi SSE 20.7 mph 27.6 mph N/A   Scattered Clouds
1:51 PM 87.1 °F 87.5 °F 62.1 °F 43% 30.04 in 10.0 mi SSE 23.0 mph 31.1 mph N/A   Scattered Clouds
2:51 PM 86.0 °F 86.1 °F 61.0 °F 43% 30.03 in 10.0 mi SSE 23.0 mph 31.1 mph N/A   Scattered Clouds
3:51 PM 84.9 °F 85.0 °F 61.0 °F 44% 30.02 in 10.0 mi SSE 23.0 mph 32.2 mph N/A   Partly Cloudy
4:51 PM 82.0 °F 83.1 °F 63.0 °F 52% 30.02 in 10.0 mi SE 25.3 mph - N/A   Partly Cloudy
5:51 PM 79.0 °F - 63.0 °F 58% 30.03 in 10.0 mi SSE 21.9 mph 29.9 mph N/A   Partly Cloudy
6:51 PM 77.0 °F - 63.0 °F 62% 30.04 in 10.0 mi SE 17.3 mph - N/A   Partly Cloudy
7:51 PM 75.9 °F - 63.0 °F 64% 30.06 in 10.0 mi SSE 15.0 mph - N/A   Partly Cloudy
8:51 PM 75.9 °F - 63.0 °F 64% 30.06 in 10.0 mi SE 15.0 mph - N/A   Partly Cloudy
9:51 PM 75.0 °F - 62.1 °F 64% 30.06 in 10.0 mi SSE 15.0 mph - N/A   Partly Cloudy
10:51 PM 75.0 °F - 62.1 °F 64% 30.06 in 10.0 mi SSE 12.7 mph - N/A   Partly Cloudy
11:51 PM 73.9 °F - 63.0 °F 68% 30.06 in 10.0 mi SSE 13.8 mph - N/A   Partly Cloudy